Погода в Усадах

Россия / Республика Татарстан     55°59′41″N   49°18′21″E
темп.,
°C
ветер,
м/с
пор.,
м/с
влажн.,
%
обл.,
%
осадки,
мм/ч
давл.,
гПа
погр.,
м
16 мая, вс
вс1600:00+18ю345895 0.0 101658
03:00+16ю336195 0.0 101647
06:00+19ю310625 0.0 1016281
09:00+24ю6104352 0.0 1016596
12:00+28ююз7133556 0.0 10151758
15:00+28ююз710379 0.0 10151297
18:00+25ююз484912 0.0 1015236
21:00+20юз336194 0.0 101541
17 мая, пн
пн1700:00+18з227066 0.0 101619
03:00+16з008372 0.0 101711
06:00+19юз017584 0.0 101887
09:00+24юз125769 0.0 1018567
12:00+27зюз2542100 0.0 10181355
15:00+28з354111 0.0 10171607
18:00+26ссз235734 0.0 1017109
21:00+20ссв226982 0.5 101816
18 мая, вт
вт1800:00+18всв228166 0.9 101927
03:00+16всв3579100 0.9 101974
06:00+18в3876100 0.0 1020230
09:00+22в4560100 0.0 1020459
12:00+25в4451100 0.0 1019944
15:00+26в444999 0.0 10191233
18:00+24в376468 0.0 1019223
21:00+19вюв41075100 0.3 1019193
19 мая, ср
ср1900:00+17в4107497 0.3 1019171
03:00+15вюв3117497 0.3 1020219
06:00+16вюв51175100 0.0 1020313
09:00+21вюв685877 0.0 1020599
12:00+23вюв674725 0.0 1019939
15:00+24вюв6743100 0.0 10181137
18:00+21в51059100 0.0 1017313
21:00+18в5136815 0.0 1016241
20 мая, чт
чт2000:00+17юв513730 0.0 1016277
03:00+16юв514695 0.0 1016343
06:00+17юв613680 0.0 1016466
09:00+21ююв795813 0.0 1015798
12:00+22ю8105840 0.1 10151545
15:00+17ю81266100 0.1 1017901
18:00+16ююв6117995 0.3 1016599
21:00+14ююв5139196 0.4 1016323